,,,PA_Meas_PMT16A,,PR_Meas_QMR101_102,,RH_Meas_QMH101,,SR_Meas_QMS101,,TA_Meas_QMH101,,GenWind,,GenWind,
date,time,status,PA,status,PR,status,RH,status,SR,status,TA,status,DirAvg,status,SpdAvg,
2010-09-09, 00:00:05,VALID,1011.19,VALID,0,VALID,102.772,VALID,0,VALID,22.7394,VALID,162,VALID,0.509375,
2010-09-09, 00:01:05,VALID,1011.17,VALID,0,VALID,102.65,VALID,0,VALID,22.7394,VALID,164,VALID,0.482031,
2010-09-09, 00:02:05,VALID,1011.16,VALID,0,VALID,102.536,VALID,0,VALID,22.7394,VALID,164,VALID,0.400781,
2010-09-09, 00:03:05,VALID,1011.16,VALID,0,VALID,102.528,VALID,0,VALID,22.7588,VALID,164,VALID,0.348047,
2010-09-09, 00:04:05,VALID,1011.14,VALID,0,VALID,102.551,VALID,0,VALID,22.7783,VALID,164,VALID,0.182812,
2010-09-09, 00:05:05,VALID,1011.16,VALID,0,VALID,102.681,VALID,0,VALID,22.7978,VALID,164,VALID,0.244531,
2010-09-09, 00:06:05,VALID,1011.14,VALID,0,VALID,102.719,VALID,0,VALID,22.7978,VALID,164,VALID,0.172266,
2010-09-09, 00:07:05,VALID,1011.16,VALID,0,VALID,102.818,VALID,0,VALID,22.8173,VALID,164,VALID,0.284375,
2010-09-09, 00:08:05,VALID,1011.15,VALID,0,VALID,102.856,VALID,0,VALID,22.7978,VALID,164,VALID,0.178125,
2010-09-09, 00:09:05,VALID,1011.18,VALID,0,VALID,102.894,VALID,0,VALID,22.7978,VALID,164,VALID,0,
2010-09-09, 00:10:05,VALID,1011.17,VALID,0,VALID,102.91,VALID,0,VALID,22.8173,VALID,164,VALID,0,
2010-09-09, 00:11:05,VALID,1011.18,VALID,0,VALID,102.971,VALID,0,VALID,22.8368,VALID,164,VALID,0,
2010-09-09, 00:12:05,VALID,1011.21,VALID,0,VALID,102.993,VALID,0,VALID,22.8173,VALID,164,VALID,0,
2010-09-09, 00:13:05,VALID,1011.22,VALID,0,VALID,102.978,VALID,0,VALID,22.8173,VALID,164,VALID,0,
2010-09-09, 00:14:05,VALID,1011.23,VALID,0,VALID,102.978,VALID,0,VALID,22.8173,VALID,164,VALID,0,
2010-09-09, 00:15:05,VALID,1011.22,VALID,0,VALID,103.001,VALID,0,VALID,22.858,VALID,164,VALID,0,
2010-09-09, 00:16:05,VALID,1011.21,VALID,0,VALID,103.009,VALID,0,VALID,22.8173,VALID,164,VALID,0,
2010-09-09, 00:17:05,VALID,1011.22,VALID,0,VALID,103.009,VALID,0,VALID,22.8368,VALID,164,VALID,0,
2010-09-09, 00:18:05,VALID,1011.24,VALID,0,VALID,102.986,VALID,0,VALID,22.8173,VALID,164,VALID,0,
2010-09-09, 00:19:05,VALID,1011.24,VALID,0,VALID,102.955,VALID,0,VALID,22.8173,VALID,164,VALID,0,
2010-09-09, 00:20:05,VALID,1011.27,VALID,0,VALID,102.978,VALID,0,VALID,22.8368,VALID,107,VALID,0.153906,
2010-09-09, 00:21:05,VALID,1011.25,VALID,0,VALID,103.032,VALID,0,VALID,22.8368,VALID,76,VALID,0.282813,
2010-09-09, 00:22:05,VALID,1011.28,VALID,0,VALID,103.062,VALID,0,VALID,22.7978,VALID,76,VALID,0.295312,
2010-09-09, 00:23:05,VALID,1011.28,VALID,0,VALID,103.07,VALID,0,VALID,22.7783,VALID,76,VALID,0.176953,
2010-09-09, 00:24:05,VALID,1011.28,VALID,0,VALID,103.07,VALID,0,VALID,22.7394,VALID,76,VALID,0.153516,
2010-09-09, 00:25:05,VALID,1011.27,VALID,0,VALID,103.108,VALID,0,VALID,22.7394,VALID,76,VALID,0.251172,
2010-09-09, 00:26:05,VALID,1011.29,VALID,0,VALID,103.161,VALID,0,VALID,22.7199,VALID,76,VALID,0,
2010-09-09, 00:27:05,VALID,1011.26,VALID,0,VALID,103.199,VALID,0,VALID,22.7004,VALID,76,VALID,0,
2010-09-09, 00:28:05,VALID,1011.29,VALID,0,VALID,103.237,VALID,0.105969,VALID,22.7004,VALID,76,VALID,0,
2010-09-09, 00:29:05,VALID,1011.25,VALID,0,VALID,103.26,VALID,0,VALID,22.7004,VALID,76,VALID,0,
2010-09-09, 00:30:05,VALID,1011.26,VALID,0,VALID,103.321,VALID,0,VALID,22.6809,VALID,76,VALID,0.102734,
2010-09-09, 00:31:05,VALID,1011.25,VALID,0,VALID,103.359,VALID,0,VALID,22.6809,VALID,76,VALID,0,
2010-09-09, 00:32:05,VALID,1011.22,VALID,0,VALID,103.375,VALID,0,VALID,22.6614,VALID,76,VALID,0.0636719,
2010-09-09, 00:33:05,VALID,1011.22,VALID,0,VALID,103.398,VALID,0,VALID,22.6614,VALID,76,VALID,0.245312,
2010-09-09, 00:34:05,VALID,1011.17,VALID,0,VALID,103.428,VALID,0,VALID,22.6614,VALID,76,VALID,0,
2010-09-09, 00:35:05,VALID,1011.18,VALID,0,VALID,103.428,VALID,0,VALID,22.6614,VALID,76,VALID,0.102734,
2010-09-09, 00:36:05,VALID,1011.16,VALID,0,VALID,103.451,VALID,0,VALID,22.6809,VALID,76,VALID,0,
2010-09-09, 00:37:05,VALID,1011.15,VALID,0,VALID,103.481,VALID,0,VALID,22.6809,VALID,76,VALID,0.312891,
2010-09-09, 00:38:05,VALID,1011.15,VALID,0,VALID,103.481,VALID,0,VALID,22.6614,VALID,61,VALID,0.245312,
2010-09-09, 00:39:05,VALID,1011.18,VALID,0,VALID,103.497,VALID,0,VALID,22.6614,VALID,61,VALID,0.151172,
2010-09-09, 00:40:05,VALID,1011.18,VALID,0,VALID,103.504,VALID,0,VALID,22.642,VALID,61,VALID,0.344141,
2010-09-09, 00:41:05,VALID,1011.2,VALID,0,VALID,103.497,VALID,0,VALID,22.6225,VALID,61,VALID,0.365234,
2010-09-09, 00:42:05,VALID,1011.16,VALID,0,VALID,103.52,VALID,0,VALID,22.642,VALID,61,VALID,0.28125,
2010-09-09, 00:43:05,VALID,1011.18,VALID,0,VALID,103.527,VALID,0,VALID,22.6225,VALID,61,VALID,0.336719,
2010-09-09, 00:44:05,VALID,1011.18,VALID,0,VALID,103.542,VALID,0,VALID,22.603,VALID,36,VALID,0.492188,
2010-09-09, 00:45:05,VALID,1011.16,VALID,0,VALID,103.55,VALID,0,VALID,22.5835,VALID,8,VALID,0.762891,
2010-09-09, 00:46:05,VALID,1011.16,VALID,0,VALID,103.558,VALID,0,VALID,22.564,VALID,7,VALID,0.799609,
2010-09-09, 00:47:05,VALID,1011.18,VALID,0,VALID,103.573,VALID,0,VALID,22.5446,VALID,15,VALID,0.721484,
2010-09-09, 00:48:05,VALID,1011.13,VALID,0,VALID,103.558,VALID,0,VALID,22.5446,VALID,356,VALID,0.607422,
2010-09-09, 00:49:05,VALID,1011.13,VALID,0,VALID,103.596,VALID,0,VALID,22.5446,VALID,21,VALID,0.684766,
2010-09-09, 00:50:05,VALID,1011.1,VALID,0,VALID,103.611,VALID,0,VALID,22.5446,VALID,3,VALID,0.702734,
2010-09-09, 00:51:05,VALID,1011.1,VALID,0,VALID,103.611,VALID,0,VALID,22.5251,VALID,4,VALID,0.683594,
2010-09-09, 00:52:05,VALID,1011.08,VALID,0,VALID,103.603,VALID,0,VALID,22.5251,VALID,4,VALID,0.524609,
2010-09-09, 00:53:05,VALID,1011.08,VALID,0,VALID,103.634,VALID,0,VALID,22.5251,VALID,9,VALID,0.348828,
2010-09-09, 00:54:05,VALID,1011.08,VALID,0,VALID,103.619,VALID,0,VALID,22.5251,VALID,9,VALID,0.3125,
2010-09-09, 00:55:05,VALID,1011.04,VALID,0,VALID,103.634,VALID,0,VALID,22.5056,VALID,9,VALID,0.298047,
2010-09-09, 00:56:05,VALID,1011.02,VALID,0,VALID,103.642,VALID,0,VALID,22.5056,VALID,9,VALID,0.251563,
2010-09-09, 00:57:05,VALID,1011.02,VALID,0,VALID,103.634,VALID,0,VALID,22.4861,VALID,9,VALID,0.124219,
2010-09-09, 00:58:05,VALID,1010.99,VALID,0,VALID,103.642,VALID,0,VALID,22.4861,VALID,9,VALID,0.259375,
2010-09-09, 00:59:04,VALID,1011,VALID,0,VALID,103.626,VALID,0,VALID,22.4861,VALID,9,VALID,0.300391,
2010-09-09, 01:00:04,VALID,1010.99,VALID,0,VALID,103.642,VALID,0,VALID,22.4667,VALID,9,VALID,0.0238281,
2010-09-09, 01:01:04,VALID,1010.99,VALID,0,VALID,103.649,VALID,0,VALID,22.4667,VALID,9,VALID,0.241797,
2010-09-09, 01:02:04,VALID,1010.95,VALID,0,VALID,103.642,VALID,0,VALID,22.4667,VALID,9,VALID,0.160938,
2010-09-09, 01:03:04,VALID,1010.98,VALID,0,VALID,103.619,VALID,0,VALID,22.4684,VALID,9,VALID,0.312891,
2010-09-09, 01:04:04,VALID,1010.96,VALID,0,VALID,103.626,VALID,0,VALID,22.4277,VALID,9,VALID,0.0195313,
2010-09-09, 01:05:04,VALID,1010.97,VALID,0,VALID,103.657,VALID,0,VALID,22.4472,VALID,9,VALID,0,
2010-09-09, 01:06:04,VALID,1011,VALID,0,VALID,103.649,VALID,0,VALID,22.4277,VALID,14,VALID,0.00117188,
2010-09-09, 01:07:04,VALID,1011,VALID,0,VALID,103.642,VALID,0,VALID,22.4472,VALID,14,VALID,0,
2010-09-09, 01:08:04,VALID,1011,VALID,0,VALID,103.619,VALID,0,VALID,22.4684,VALID,14,VALID,0.164063,
2010-09-09, 01:09:04,VALID,1011,VALID,0,VALID,103.626,VALID,0,VALID,22.4472,VALID,14,VALID,0.152734,
2010-09-09, 01:10:04,VALID,1010.98,VALID,0,VALID,103.642,VALID,0,VALID,22.4472,VALID,14,VALID,0.172656,
2010-09-09, 01:11:04,VALID,1010.98,VALID,0,VALID,103.649,VALID,0,VALID,22.4277,VALID,14,VALID,0.0160156,
2010-09-09, 01:12:04,VALID,1010.96,VALID,0,VALID,103.634,VALID,0,VALID,22.4472,VALID,14,VALID,0.00351562,
2010-09-09, 01:13:04,VALID,1010.94,VALID,0,VALID,103.649,VALID,0,VALID,22.4277,VALID,14,VALID,0.025,
2010-09-09, 01:14:04,VALID,1010.94,VALID,0,VALID,103.664,VALID,0,VALID,22.4065,VALID,14,VALID,0,
2010-09-09, 01:15:04,VALID,1010.95,VALID,0,VALID,103.649,VALID,0,VALID,22.4082,VALID,14,VALID,0,
2010-09-09, 01:16:04,VALID,1010.94,VALID,0,VALID,103.672,VALID,0,VALID,22.4082,VALID,14,VALID,0,
2010-09-09, 01:17:04,VALID,1010.93,VALID,0,VALID,103.649,VALID,0,VALID,22.4082,VALID,14,VALID,0,
2010-09-09, 01:18:04,VALID,1010.95,VALID,0,VALID,103.664,VALID,0,VALID,22.4082,VALID,14,VALID,0,
2010-09-09, 01:19:04,VALID,1010.91,VALID,0,VALID,103.664,VALID,0,VALID,22.3887,VALID,14,VALID,0,
2010-09-09, 01:20:04,VALID,1010.94,VALID,0,VALID,103.672,VALID,0,VALID,22.3887,VALID,14,VALID,0,
2010-09-09, 01:21:04,VALID,1010.9,VALID,0,VALID,103.657,VALID,0,VALID,22.3887,VALID,14,VALID,0,
2010-09-09, 01:22:04,VALID,1010.9,VALID,0,VALID,103.672,VALID,0,VALID,22.3887,VALID,14,VALID,0,
2010-09-09, 01:23:04,VALID,1010.9,VALID,0,VALID,103.672,VALID,0,VALID,22.3887,VALID,14,VALID,0.125781,
2010-09-09, 01:24:04,VALID,1010.88,VALID,0,VALID,103.657,VALID,0,VALID,22.3481,VALID,14,VALID,0,
2010-09-09, 01:25:04,VALID,1010.86,VALID,0,VALID,103.687,VALID,0.105969,VALID,22.3693,VALID,14,VALID,0,
2010-09-09, 01:26:04,VALID,1010.86,VALID,0,VALID,103.672,VALID,0,VALID,22.3498,VALID,14,VALID,0,
2010-09-09, 01:27:04,VALID,1010.83,VALID,0,VALID,103.657,VALID,0,VALID,22.3498,VALID,14,VALID,0,
2010-09-09, 01:28:04,VALID,1010.84,VALID,0,VALID,103.672,VALID,0,VALID,22.3303,VALID,14,VALID,0,
2010-09-09, 01:29:04,VALID,1010.82,VALID,0,VALID,103.664,VALID,0,VALID,22.3303,VALID,14,VALID,0,
2010-09-09, 01:30:04,VALID,1010.79,VALID,0,VALID,103.68,VALID,0,VALID,22.2897,VALID,14,VALID,0,
2010-09-09, 01:31:04,VALID,1010.78,VALID,0,VALID,103.687,VALID,0,VALID,22.3108,VALID,14,VALID,0,
2010-09-09, 01:32:04,VALID,1010.78,VALID,0,VALID,103.68,VALID,0,VALID,22.3108,VALID,14,VALID,0,
2010-09-09, 01:33:04,VALID,1010.78,VALID,0,VALID,103.657,VALID,0,VALID,22.2719,VALID,14,VALID,0,
2010-09-09, 01:34:04,VALID,1010.78,VALID,0,VALID,103.672,VALID,0,VALID,22.2719,VALID,14,VALID,0,
2010-09-09, 01:35:04,VALID,1010.8,VALID,0,VALID,103.672,VALID,0,VALID,22.2719,VALID,14,VALID,0,
2010-09-09, 01:36:04,VALID,1010.79,VALID,0,VALID,103.672,VALID,0,VALID,22.2524,VALID,14,VALID,0,
2010-09-09, 01:37:04,VALID,1010.79,VALID,0,VALID,103.664,VALID,0,VALID,22.2541,VALID,14,VALID,0,
2010-09-09, 01:38:04,VALID,1010.8,VALID,0,VALID,103.672,VALID,0,VALID,22.2329,VALID,14,VALID,0,
2010-09-09, 01:39:04,VALID,1010.79,VALID,0,VALID,103.672,VALID,0,VALID,22.2134,VALID,14,VALID,0,
2010-09-09, 01:40:04,VALID,1010.76,VALID,0,VALID,103.68,VALID,0,VALID,22.2134,VALID,43,VALID,0.336719,
2010-09-09, 01:41:04,VALID,1010.76,VALID,0,VALID,103.695,VALID,0,VALID,22.2134,VALID,43,VALID,0.382031,
2010-09-09, 01:42:04,VALID,1010.76,VALID,0,VALID,103.657,VALID,0,VALID,22.2134,VALID,42,VALID,0.0585938,
2010-09-09, 01:43:04,VALID,1010.74,VALID,0,VALID,103.68,VALID,0,VALID,22.194,VALID,44,VALID,0.24375,
2010-09-09, 01:44:04,VALID,1010.72,VALID,0,VALID,103.672,VALID,0,VALID,22.2134,VALID,62,VALID,0.04375,
2010-09-09, 01:45:04,VALID,1010.72,VALID,0,VALID,103.672,VALID,0,VALID,22.194,VALID,62,VALID,0,
2010-09-09, 01:46:04,VALID,1010.69,VALID,0,VALID,103.672,VALID,0,VALID,22.194,VALID,60,VALID,0.245703,
2010-09-09, 01:47:04,VALID,1010.66,VALID,0,VALID,103.687,VALID,0,VALID,22.194,VALID,52,VALID,0.172656,
2010-09-09, 01:48:04,VALID,1010.67,VALID,0,VALID,103.695,VALID,0,VALID,22.1728,VALID,52,VALID,0,
2010-09-09, 01:49:04,VALID,1010.64,VALID,0,VALID,103.68,VALID,0,VALID,22.1745,VALID,48,VALID,0.264453,
2010-09-09, 01:50:04,VALID,1010.66,VALID,0,VALID,103.672,VALID,0,VALID,22.194,VALID,45,VALID,0,
2010-09-09, 01:51:04,VALID,1010.65,VALID,0,VALID,103.68,VALID,0,VALID,22.194,VALID,45,VALID,0,
2010-09-09, 01:52:04,VALID,1010.67,VALID,0,VALID,103.68,VALID,0,VALID,22.1745,VALID,45,VALID,0,
2010-09-09, 01:53:04,VALID,1010.65,VALID,0,VALID,103.664,VALID,0,VALID,22.1957,VALID,50,VALID,0.0230469,
2010-09-09, 01:54:04,VALID,1010.63,VALID,0,VALID,103.687,VALID,0,VALID,22.1745,VALID,81,VALID,0.746875,
2010-09-09, 01:55:04,VALID,1010.65,VALID,0,VALID,103.649,VALID,0,VALID,22.155,VALID,70,VALID,0.608203,
2010-09-09, 01:56:04,VALID,1010.63,VALID,0,VALID,103.672,VALID,0,VALID,22.1745,VALID,79,VALID,0.541797,
2010-09-09, 01:57:04,VALID,1010.64,VALID,0,VALID,103.672,VALID,0,VALID,22.1745,VALID,66,VALID,0.481641,
2010-09-09, 01:58:04,VALID,1010.66,VALID,0,VALID,103.672,VALID,0,VALID,22.155,VALID,58,VALID,0.386328,
2010-09-09, 01:59:04,VALID,1010.66,VALID,0,VALID,103.687,VALID,0,VALID,22.155,VALID,67,VALID,0.0433594,
2010-09-09, 02:00:04,VALID,1010.68,VALID,0,VALID,103.664,VALID,0,VALID,22.1745,VALID,68,VALID,0.66875,
2010-09-09, 02:01:04,VALID,1010.63,VALID,0,VALID,103.649,VALID,0,VALID,22.1745,VALID,78,VALID,0.699609,
2010-09-09, 02:02:04,VALID,1010.64,VALID,0,VALID,103.664,VALID,0,VALID,22.1745,VALID,52,VALID,0.667578,
2010-09-09, 02:03:04,VALID,1010.67,VALID,0,VALID,103.664,VALID,0,VALID,22.1745,VALID,70,VALID,0.616797,
2010-09-09, 02:04:04,VALID,1010.62,VALID,0,VALID,103.672,VALID,0,VALID,22.1745,VALID,55,VALID,0.443359,
2010-09-09, 02:05:04,VALID,1010.6,VALID,0,VALID,103.664,VALID,0,VALID,22.1745,VALID,66,VALID,0.635938,
2010-09-09, 02:06:04,VALID,1010.59,VALID,0,VALID,103.657,VALID,0,VALID,22.1745,VALID,61,VALID,0.766016,
2010-09-09, 02:07:04,VALID,1010.58,VALID,0,VALID,103.672,VALID,0,VALID,22.1745,VALID,77,VALID,0.881641,
2010-09-09, 02:08:04,VALID,1010.55,VALID,0,VALID,103.672,VALID,0,VALID,22.1745,VALID,55,VALID,0.319141,
2010-09-09, 02:09:04,VALID,1010.55,VALID,0,VALID,103.664,VALID,0,VALID,22.1745,VALID,55,VALID,0.000390625,
2010-09-09, 02:10:04,VALID,1010.51,VALID,0,VALID,103.672,VALID,0,VALID,22.1745,VALID,70,VALID,1.26758,
2010-09-09, 02:11:04,VALID,1010.48,VALID,0,VALID,103.664,VALID,0,VALID,22.1745,VALID,59,VALID,0.551172,
2010-09-09, 02:12:04,VALID,1010.48,VALID,0,VALID,103.664,VALID,0,VALID,22.1745,VALID,67,VALID,0.46875,
2010-09-09, 02:13:04,VALID,1010.48,VALID,0,VALID,103.672,VALID,0,VALID,22.1745,VALID,67,VALID,0.192969,
2010-09-09, 02:14:04,VALID,1010.46,VALID,0,VALID,103.664,VALID,0,VALID,22.155,VALID,67,VALID,0.345703,
2010-09-09, 02:15:04,VALID,1010.48,VALID,0,VALID,103.672,VALID,0,VALID,22.1745,VALID,63,VALID,0.228516,
2010-09-09, 02:16:04,VALID,1010.48,VALID,0,VALID,103.657,VALID,0,VALID,22.1745,VALID,63,VALID,0.233984,
2010-09-09, 02:17:04,VALID,1010.5,VALID,0,VALID,103.657,VALID,0,VALID,22.1533,VALID,75,VALID,0.492578,
2010-09-09, 02:18:04,VALID,1010.5,VALID,0,VALID,103.672,VALID,0,VALID,22.1957,VALID,75,VALID,0.416406,
2010-09-09, 02:19:04,VALID,1010.46,VALID,0,VALID,103.664,VALID,0,VALID,22.1745,VALID,71,VALID,0.319531,
2010-09-09, 02:20:04,VALID,1010.42,VALID,0,VALID,103.664,VALID,0,VALID,22.1745,VALID,54,VALID,0.417188,
2010-09-09, 02:21:04,VALID,1010.37,VALID,0,VALID,103.664,VALID,0,VALID,22.1745,VALID,65,VALID,0.0625,
2010-09-09, 02:22:04,VALID,1010.35,VALID,0,VALID,103.657,VALID,0,VALID,22.1745,VALID,68,VALID,0.254687,
2010-09-09, 02:23:04,VALID,1010.31,VALID,0,VALID,103.657,VALID,0,VALID,22.1745,VALID,28,VALID,0.716406,
2010-09-09, 02:24:04,VALID,1010.3,VALID,0,VALID,103.664,VALID,0,VALID,22.1745,VALID,28,VALID,0.0375,
2010-09-09, 02:25:04,VALID,1010.29,VALID,0,VALID,103.672,VALID,0,VALID,22.155,VALID,28,VALID,0.302734,
2010-09-09, 02:26:04,VALID,1010.27,VALID,0,VALID,103.649,VALID,0,VALID,22.155,VALID,29,VALID,0.126172,
2010-09-09, 02:27:04,VALID,1010.25,VALID,0,VALID,103.649,VALID,0,VALID,22.155,VALID,77,VALID,0.546875,
2010-09-09, 02:28:04,VALID,1010.25,VALID,0,VALID,103.657,VALID,0,VALID,22.1567,VALID,77,VALID,0.179297,
2010-09-09, 02:29:04,VALID,1010.25,VALID,0,VALID,103.664,VALID,0,VALID,22.1355,VALID,77,VALID,0.071875,
2010-09-09, 02:30:04,VALID,1010.22,VALID,0,VALID,103.657,VALID,0,VALID,22.1355,VALID,77,VALID,0,
2010-09-09, 02:31:04,VALID,1010.24,VALID,0,VALID,103.649,VALID,0,VALID,22.1567,VALID,77,VALID,0,
2010-09-09, 02:32:04,VALID,1010.25,VALID,0,VALID,103.657,VALID,0,VALID,22.1355,VALID,77,VALID,0,
2010-09-09, 02:33:04,VALID,1010.22,VALID,0,VALID,103.642,VALID,0,VALID,22.1355,VALID,77,VALID,0,
2010-09-09, 02:34:04,VALID,1010.21,VALID,0,VALID,103.649,VALID,0,VALID,22.1567,VALID,77,VALID,0,
2010-09-09, 02:35:04,VALID,1010.18,VALID,0,VALID,103.649,VALID,0,VALID,22.1567,VALID,77,VALID,0,
2010-09-09, 02:36:04,VALID,1010.16,VALID,0,VALID,103.642,VALID,0,VALID,22.1355,VALID,77,VALID,0,
2010-09-09, 02:37:04,VALID,1010.17,VALID,0,VALID,103.657,VALID,0,VALID,22.155,VALID,72,VALID,0.201562,
2010-09-09, 02:38:04,VALID,1010.17,VALID,0,VALID,103.657,VALID,0,VALID,22.1355,VALID,72,VALID,0,
2010-09-09, 02:39:04,VALID,1010.16,VALID,0,VALID,103.634,VALID,0,VALID,22.1355,VALID,72,VALID,0.412891,
2010-09-09, 02:40:04,VALID,1010.18,VALID,0,VALID,103.664,VALID,0,VALID,22.1355,VALID,72,VALID,0,
2010-09-09, 02:41:04,VALID,1010.17,VALID,0,VALID,103.642,VALID,0,VALID,22.1144,VALID,72,VALID,0,
2010-09-09, 02:42:04,VALID,1010.15,VALID,0,VALID,103.657,VALID,0,VALID,22.1355,VALID,72,VALID,0,
2010-09-09, 02:43:04,VALID,1010.14,VALID,0,VALID,103.657,VALID,0.105969,VALID,22.1355,VALID,72,VALID,0,
2010-09-09, 02:44:04,VALID,1010.15,VALID,0,VALID,103.626,VALID,0.105969,VALID,22.1355,VALID,72,VALID,0,
2010-09-09, 02:45:04,VALID,1010.12,VALID,0,VALID,103.626,VALID,0.105969,VALID,22.1144,VALID,72,VALID,0,
2010-09-09, 02:46:04,VALID,1010.1,VALID,0,VALID,103.634,VALID,0,VALID,22.1161,VALID,72,VALID,0,
2010-09-09, 02:47:04,VALID,1010.07,VALID,0,VALID,103.642,VALID,0.105969,VALID,22.1161,VALID,72,VALID,0,
2010-09-09, 02:48:04,VALID,1010.06,VALID,0,VALID,103.619,VALID,0,VALID,22.0966,VALID,72,VALID,0,
2010-09-09, 02:49:04,VALID,1010.06,VALID,0,VALID,103.634,VALID,0,VALID,22.1161,VALID,72,VALID,0,
2010-09-09, 02:50:04,VALID,1010.03,VALID,0,VALID,103.626,VALID,0.105969,VALID,22.1161,VALID,72,VALID,0,
2010-09-09, 02:51:04,VALID,1010.01,VALID,0,VALID,103.619,VALID,0.105969,VALID,22.1144,VALID,72,VALID,0,
2010-09-09, 02:52:04,VALID,1009.99,VALID,0,VALID,103.596,VALID,0,VALID,22.1355,VALID,72,VALID,0,
2010-09-09, 02:53:04,VALID,1009.96,VALID,0,VALID,103.588,VALID,0,VALID,22.1355,VALID,72,VALID,0,
2010-09-09, 02:54:04,VALID,1009.98,VALID,0,VALID,103.596,VALID,0,VALID,22.155,VALID,72,VALID,0,
2010-09-09, 02:55:04,VALID,1010.01,VALID,0,VALID,103.581,VALID,0,VALID,22.155,VALID,72,VALID,0.0164062,
2010-09-09, 02:56:04,VALID,1010.02,VALID,0,VALID,103.603,VALID,0.105969,VALID,22.1745,VALID,72,VALID,0,
2010-09-09, 02:57:04,VALID,1010.02,VALID,0,VALID,103.581,VALID,0,VALID,22.1533,VALID,72,VALID,0.285547,
2010-09-09, 02:58:04,VALID,1010.05,VALID,0,VALID,103.603,VALID,0,VALID,22.1745,VALID,73,VALID,0.341016,
2010-09-09, 02:59:04,VALID,1010.05,VALID,0,VALID,103.611,VALID,0,VALID,22.155,VALID,73,VALID,0.269531,
2010-09-09, 03:00:04,VALID,1010.06,VALID,0,VALID,103.581,VALID,0,VALID,22.1339,VALID,73,VALID,0,
2010-09-09, 03:01:04,VALID,1010.06,VALID,0,VALID,103.603,VALID,0,VALID,22.1355,VALID,73,VALID,0,
2010-09-09, 03:02:04,VALID,1010.1,VALID,0,VALID,103.596,VALID,0,VALID,22.155,VALID,73,VALID,0,
2010-09-09, 03:03:04,VALID,1010.12,VALID,0,VALID,103.619,VALID,0,VALID,22.1355,VALID,73,VALID,0,
2010-09-09, 03:04:04,VALID,1010.14,VALID,0,VALID,103.626,VALID,0,VALID,22.1355,VALID,73,VALID,0,
2010-09-09, 03:05:04,VALID,1010.14,VALID,0,VALID,103.596,VALID,0,VALID,22.1355,VALID,73,VALID,0,
2010-09-09, 03:06:04,VALID,1010.15,VALID,0,VALID,103.581,VALID,0,VALID,22.155,VALID,73,VALID,0,
2010-09-09, 03:07:04,VALID,1010.15,VALID,0,VALID,103.565,VALID,0,VALID,22.1745,VALID,73,VALID,0,
2010-09-09, 03:08:04,VALID,1010.16,VALID,0,VALID,103.55,VALID,0,VALID,22.1745,VALID,73,VALID,0,
2010-09-09, 03:09:04,VALID,1010.15,VALID,0,VALID,103.565,VALID,0,VALID,22.1745,VALID,73,VALID,0,
2010-09-09, 03:10:04,VALID,1010.14,VALID,0,VALID,103.558,VALID,0,VALID,22.194,VALID,73,VALID,0,
2010-09-09, 03:11:04,VALID,1010.14,VALID,0,VALID,103.55,VALID,0.105969,VALID,22.2134,VALID,73,VALID,0,
2010-09-09, 03:12:04,VALID,1010.15,VALID,0,VALID,103.535,VALID,0,VALID,22.2134,VALID,73,VALID,0,
2010-09-09, 03:13:04,VALID,1010.16,VALID,0,VALID,103.535,VALID,0,VALID,22.2134,VALID,73,VALID,0,
2010-09-09, 03:14:04,VALID,1010.14,VALID,0,VALID,103.52,VALID,0.105969,VALID,22.2524,VALID,73,VALID,0,
2010-09-09, 03:15:04,VALID,1010.15,VALID,0,VALID,103.52,VALID,0,VALID,22.2524,VALID,73,VALID,0,
2010-09-09, 03:16:04,VALID,1010.19,VALID,0,VALID,103.542,VALID,0.105969,VALID,22.2524,VALID,73,VALID,0,
2010-09-09, 03:17:04,VALID,1010.15,VALID,0,VALID,103.542,VALID,0,VALID,22.2524,VALID,73,VALID,0,
2010-09-09, 03:18:04,VALID,1010.16,VALID,0,VALID,103.558,VALID,0,VALID,22.2524,VALID,73,VALID,0,
2010-09-09, 03:19:04,VALID,1010.17,VALID,0,VALID,103.527,VALID,0,VALID,22.2719,VALID,73,VALID,0,
2010-09-09, 03:20:04,VALID,1010.15,VALID,0,VALID,103.52,VALID,0,VALID,22.2719,VALID,73,VALID,0,
2010-09-09, 03:21:04,VALID,1010.16,VALID,0,VALID,103.512,VALID,0.105969,VALID,22.2914,VALID,73,VALID,0,
2010-09-09, 03:22:04,VALID,1010.15,VALID,0,VALID,103.497,VALID,0.105969,VALID,22.2914,VALID,73,VALID,0,
2010-09-09, 03:23:04,VALID,1010.17,VALID,0,VALID,103.497,VALID,0,VALID,22.3108,VALID,124,VALID,0.480078,
2010-09-09, 03:24:04,VALID,1010.18,VALID,0,VALID,103.512,VALID,0,VALID,22.2914,VALID,127,VALID,0.272656,
2010-09-09, 03:25:04,VALID,1010.15,VALID,0,VALID,103.52,VALID,0.105969,VALID,22.2914,VALID,127,VALID,0.20625,
2010-09-09, 03:26:04,VALID,1010.15,VALID,0,VALID,103.504,VALID,0,VALID,22.3108,VALID,127,VALID,0.188281,
2010-09-09, 03:27:04,VALID,1010.18,VALID,0,VALID,103.542,VALID,0,VALID,22.3303,VALID,127,VALID,0.308594,
2010-09-09, 03:28:04,VALID,1010.2,VALID,0,VALID,103.542,VALID,0,VALID,22.3108,VALID,95,VALID,0.299609,
2010-09-09, 03:29:04,VALID,1010.2,VALID,0,VALID,103.542,VALID,0,VALID,22.3108,VALID,95,VALID,0,
2010-09-09, 03:30:04,VALID,1010.17,VALID,0,VALID,103.558,VALID,0,VALID,22.3125,VALID,95,VALID,0.0554687,
2010-09-09, 03:31:04,VALID,1010.17,VALID,0,VALID,103.55,VALID,0,VALID,22.2914,VALID,95,VALID,0.0699219,
2010-09-09, 03:32:04,VALID,1010.16,VALID,0,VALID,103.55,VALID,0,VALID,22.3108,VALID,94,VALID,0.291016,
2010-09-09, 03:33:04,VALID,1010.18,VALID,0,VALID,103.565,VALID,0,VALID,22.3108,VALID,89,VALID,0.412891,
2010-09-09, 03:34:04,VALID,1010.13,VALID,0,VALID,103.596,VALID,0,VALID,22.3108,VALID,85,VALID,0.367578,
2010-09-09, 03:35:04,VALID,1010.08,VALID,0,VALID,103.619,VALID,0,VALID,22.3108,VALID,72,VALID,0.0105469,
2010-09-09, 03:36:04,VALID,1010.06,VALID,0,VALID,103.596,VALID,0,VALID,22.3108,VALID,63,VALID,0.536719,
2010-09-09, 03:37:04,VALID,1010.07,VALID,0,VALID,103.603,VALID,0,VALID,22.3108,VALID,63,VALID,0.223438,
2010-09-09, 03:38:04,VALID,1010.06,VALID,0,VALID,103.603,VALID,0,VALID,22.3108,VALID,63,VALID,0,
2010-09-09, 03:39:04,VALID,1010.08,VALID,0,VALID,103.596,VALID,0,VALID,22.3108,VALID,63,VALID,0.0015625,
2010-09-09, 03:40:04,VALID,1010.09,VALID,0,VALID,103.603,VALID,0,VALID,22.3108,VALID,63,VALID,0.122656,
2010-09-09, 03:41:04,VALID,1010.09,VALID,0,VALID,103.634,VALID,0,VALID,22.3108,VALID,63,VALID,0.334375,
2010-09-09, 03:42:04,VALID,1010.09,VALID,0,VALID,103.634,VALID,0,VALID,22.3108,VALID,63,VALID,0.136328,
2010-09-09, 03:43:04,VALID,1010.07,VALID,0,VALID,103.619,VALID,0,VALID,22.2897,VALID,63,VALID,0.00507812,
2010-09-09, 03:44:04,VALID,1010.11,VALID,0,VALID,103.626,VALID,0,VALID,22.3108,VALID,63,VALID,0.285937,
2010-09-09, 03:45:04,VALID,1010.1,VALID,0,VALID,103.664,VALID,0,VALID,22.2914,VALID,61,VALID,0.440625,
2010-09-09, 03:46:04,VALID,1010.09,VALID,0,VALID,103.68,VALID,0,VALID,22.3108,VALID,61,VALID,0.311328,
2010-09-09, 03:47:04,VALID,1010.11,VALID,0,VALID,103.664,VALID,0,VALID,22.2914,VALID,46,VALID,0.502344,
2010-09-09, 03:48:04,VALID,1010.13,VALID,0,VALID,103.672,VALID,0,VALID,22.2719,VALID,46,VALID,0.340234,
2010-09-09, 03:49:04,VALID,1010.11,VALID,0,VALID,103.664,VALID,0,VALID,22.2914,VALID,46,VALID,0.421875,
2010-09-09, 03:50:04,VALID,1010.12,VALID,0,VALID,103.664,VALID,0,VALID,22.293,VALID,21,VALID,0.249219,
2010-09-09, 03:51:04,VALID,1010.12,VALID,0,VALID,103.664,VALID,0,VALID,22.2719,VALID,26,VALID,0.0371094,